2023/02/19 00:00:00,182.1, 5.5
2023/02/19 00:10:00,---, 5.6
2023/02/19 00:20:00,---, 5.4
2023/02/19 00:30:00,182.0, 5.2
2023/02/19 00:40:00,182.1, 5.5
2023/02/19 00:50:00,182.0, 5.3
2023/02/19 01:00:00,182.0, 5.4
2023/02/19 01:10:00,182.1, 5.1
2023/02/19 01:20:00,220.6, 5.5
2023/02/19 01:30:00,182.2, 5.4
2023/02/19 01:40:00,205.0, 5.6
2023/02/19 01:50:00,199.2, 5.7
2023/02/19 02:00:00,199.2, 5.3
2023/02/19 02:10:00,---, 5.2
2023/02/19 02:20:00,---, 5.3
2023/02/19 02:30:00,199.3, 6.2
2023/02/19 02:40:00,222.6, 6.5
2023/02/19 02:50:00,239.9, 7.1
2023/02/19 03:00:00,240.1, 6.8
2023/02/19 03:10:00,240.2, 5.9
2023/02/19 03:20:00,240.0, 6.2
2023/02/19 03:30:00,239.8, 6.2
2023/02/19 03:40:00,240.0, 6.4
2023/02/19 03:50:00,240.1, 6.5
2023/02/19 04:00:00,239.9, 7.2
2023/02/19 04:10:00,240.0, 8.3
2023/02/19 04:20:00,240.2, 8.1
2023/02/19 04:30:00,240.2, 7.6
2023/02/19 04:40:00,240.2, 7.5
2023/02/19 04:50:00,240.1, 6.6
2023/02/19 05:00:00,240.2, 6.3
2023/02/19 05:10:00,240.2, 6.6
2023/02/19 05:20:00,240.2, 6.3
2023/02/19 05:30:00,240.1, 6.1
2023/02/19 05:40:00,240.1, 5.8
2023/02/19 05:50:00,240.3, 5.4
2023/02/19 06:00:00,240.0, 5.3
2023/02/19 06:10:00,240.1, 5.9
2023/02/19 06:20:00,240.3, 5.5
2023/02/19 06:30:00,240.3, 5.3
2023/02/19 06:40:00,240.1, 5.6
2023/02/19 06:50:00,240.2, 5.2
2023/02/19 07:00:00,240.1, 5.5
2023/02/19 07:10:00,240.2, 5.5
2023/02/19 07:20:00,---, 5.5
2023/02/19 07:30:00,---, 5.6
2023/02/19 07:40:00,---, 5.2
2023/02/19 07:50:00, 0.0, 5.5
2023/02/19 08:00:00,---, 5.5
2023/02/19 08:10:00,---, 5.4
2023/02/19 08:20:00,---, 5.4
2023/02/19 08:30:00,---, 5.8
2023/02/19 08:40:00,---, 5.9
2023/02/19 08:50:00,---, 6.0
2023/02/19 09:00:00,---, 6.0
2023/02/19 09:10:00,---, 6.2
2023/02/19 09:20:00, 0.0, 6.2
2023/02/19 09:30:00, 0.0, 6.2
2023/02/19 09:40:00, 0.0, 6.0
2023/02/19 09:50:00, 0.0, 6.2
2023/02/19 10:00:00, 0.0, 7.9
2023/02/19 10:10:00, 0.0, 7.9
2023/02/19 10:20:00,---, 7.6
2023/02/19 10:30:00,---, 7.5
2023/02/19 10:40:00,---, 6.8
2023/02/19 10:50:00,---, 7.2
2023/02/19 11:00:00,---, 7.3
2023/02/19 11:10:00,---, 6.8
2023/02/19 11:20:00,---, 7.4
2023/02/19 11:30:00,17.6, 6.2
2023/02/19 11:40:00,17.3, 5.9
2023/02/19 11:50:00,17.1, 5.8
2023/02/19 12:00:00,16.6, 6.1
2023/02/19 12:10:00,16.5, 5.9
2023/02/19 12:20:00,16.8, 6.0
2023/02/19 12:30:00,17.0, 5.7
2023/02/19 12:40:00,16.9, 5.8
2023/02/19 12:50:00,16.4, 5.7
2023/02/19 13:00:00,15.8, 6.0
2023/02/19 13:10:00,16.4, 5.6
2023/02/19 13:20:00,16.3, 5.4
2023/02/19 13:30:00,16.2, 5.5
2023/02/19 13:40:00,16.4, 6.0
2023/02/19 13:50:00, 0.0, 6.8
2023/02/19 14:00:00,15.8, 6.4
2023/02/19 14:10:00,16.7, 6.2
2023/02/19 14:20:00,16.9, 5.8
2023/02/19 14:30:00,16.5, 5.7
2023/02/19 14:40:00,16.3, 5.6
2023/02/19 14:50:00,16.4, 5.6
2023/02/19 15:00:00,16.4, 5.3
2023/02/19 15:10:00,16.2, 5.2
2023/02/19 15:20:00,16.4, 5.2
2023/02/19 15:30:00,16.2, 5.2
2023/02/19 15:40:00,16.1, 5.0
2023/02/19 15:50:00,16.0, 4.9
2023/02/19 16:00:00,15.9, 5.1
2023/02/19 16:10:00,15.8, 5.0
2023/02/19 16:20:00,15.2, 5.1
2023/02/19 16:30:00,15.7, 5.1
2023/02/19 16:40:00,15.8, 5.1
2023/02/19 16:50:00,15.6, 5.1
2023/02/19 17:00:00,15.4, 5.2
2023/02/19 17:10:00,15.6, 4.7
2023/02/19 17:20:00,15.7, 4.4
2023/02/19 17:30:00,15.5, 4.5
2023/02/19 17:40:00,15.6, 4.4
2023/02/19 17:50:00,15.6, 4.1
2023/02/19 18:00:00,15.6, 3.8
2023/02/19 18:10:00,15.5, 3.6
2023/02/19 18:20:00,15.5, 3.4
2023/02/19 18:30:00,15.4, 3.2
2023/02/19 18:40:00,15.3, 3.2
2023/02/19 18:50:00,15.3, 2.9
2023/02/19 19:00:00,15.3, 2.9
2023/02/19 19:10:00,15.2, 2.9
2023/02/19 19:20:00,15.2, 2.8
2023/02/19 19:30:00,15.2, 2.6
2023/02/19 19:40:00,15.2, 2.7
2023/02/19 19:50:00,15.2, 2.8
2023/02/19 20:00:00,15.2, 2.7
2023/02/19 20:10:00,15.3, 2.3
2023/02/19 20:20:00,15.2, 2.3
2023/02/19 20:30:00,15.3, 2.2
2023/02/19 20:40:00,15.4, 2.1
2023/02/19 20:50:00,15.4, 1.8
2023/02/19 21:00:00,15.4, 1.9
2023/02/19 21:10:00,15.4, 1.7
2023/02/19 21:20:00,15.3, 1.6
2023/02/19 21:30:00,15.3, 1.6
2023/02/19 21:40:00,15.3, 1.5
2023/02/19 21:50:00,15.4, 1.2
2023/02/19 22:00:00,15.4, 1.4
2023/02/19 22:10:00,15.3, 1.4
2023/02/19 22:20:00,15.3, 1.3
2023/02/19 22:30:00,15.3, 1.3
2023/02/19 22:40:00,15.3, 1.1
2023/02/19 22:50:00,15.3, 1.5
2023/02/19 23:00:00,15.3, 0.8
2023/02/19 23:10:00,15.2, 0.8
2023/02/19 23:20:00,15.2, 0.6
2023/02/19 23:30:00,15.3, 0.2
2023/02/19 23:40:00,15.2, 0.5
2023/02/19 23:50:00,15.2, 0.2
